Regional Weather Roundup
Issued by NWS

Home | Current Version | Previous Version | Text Only | Print | Product List | Glossary On
Versions: 1 2 3 4 5 6 7 8 9 10 11 12 13 14 15 16 17 18 19 20 21 22 23 24 25 26 27 28 29 30 31 32 33 34 35 36 37 38 39 40 41 42 43 44 45 46 47 48 49 50
000
ASCA44 KEWX 230020
RWRMX

LATIN AMERICA AND CARIBBEAN REGIONAL WEATHER ROUNDUP
NATIONAL WEATHER SERVICE AUSTIN/SAN ANTONIO TX
700 PM CDT FRI MAY 22 2015

NOTE: "FAIR" INDICATED FEW OR NO CLOUDS BELOW 12,000 FEET WITH NO
SIGNIFICANT WEATHER AND/OR OBSTRUCTIONS TO VISIBILITY.

BAJA CALIFORNIA

CITY           SKY/WX    TMP DP  RH WIND       PRES   REMARKS
LORETO         PTSUNNY   77  63  61 NE9       29.90F
LA PAZ         PTSUNNY   82  55  39 NW9       29.93F
MEXICALI       MOSUNNY   77  37  24 W15       29.89S
S.J. DEL CABO  PTSUNNY   84  59  42 S12       29.90F
TIJUANA        PTSUNNY   64  46  52 W13       30.06S

NORTHWESTERN MEXICO

CITY           SKY/WX    TMP DP  RH WIND       PRES   REMARKS
CULIACAN       PTSUNNY   95  61  31 W16       29.87S HX  95
DURANGO        PTSUNNY   81  36  19 SW7       30.16F
GUAYMAS        PTSUNNY   82  39  21 SW12      29.85F
HERMOSILLO     PTSUNNY   88  30  12 S18       29.92S
CD. JUAREZ     PTSUNNY   91  45  19 SW9       29.81F
LOS MOCHIS     CLOUDY    81  55  41 N12       29.90F
OBREGON        PTSUNNY   84  41  21 W5        29.88F

NORTHEASTERN MEXICO

CITY           SKY/WX    TMP DP  RH WIND       PRES   REMARKS
CHIHUAHUA      PTSUNNY   88  36  15 SW23      29.94R
MATAMOROS      PTSUNNY   86  75  70 E14       30.00F HX  95
MONCLOVA         N/A    N/A N/A N/A MISG        N/A
MONTERREY      PTSUNNY   81  68  65 SE6       29.96F
NUEVO LAREDO   PTSUNNY   88  70  55 S9        29.93F HX  92
PIEDRAS NEGRAS   N/A    N/A N/A N/A MISG        N/A
REYNOSA        PTSUNNY   82  72  69 SE14      29.95F
SALTILLO       PTSUNNY   75  63  64 N14       30.14F
TORREON        MOSUNNY   88  52  29 SE8       29.97F
CD. VICTORIA   PTSUNNY   86  68  54 SE3       29.95F

WESTERN MEXICO

CITY           SKY/WX    TMP DP  RH WIND       PRES   REMARKS
AGUASCALIENTES PTSUNNY   79  34  19 SW9       30.18S
COLIMA         PTSUNNY   77  66  69 SW14      30.01R
DEL BAJIO      PTSUNNY   75  55  50 N15       30.24S
GUADALAJARA    PTSUNNY   86  48  26 S10       30.09S
MANZANILLO     MOSUNNY   84  79  84 W9        29.83F HX  96
MAZATLAN       MOSUNNY   84  57  39 W17       29.86S
P. VALLARTA    PTSUNNY   86  70  58 SW12      29.87S HX  90
URUAPAN        PTSUNNY   72  59  64 CALM      30.18S
ZACATECAS      PTSUNNY   70  41  35 S23       30.28

CENTRAL MEXICO

CITY           SKY/WX    TMP DP  RH WIND       PRES   REMARKS
CUERNAVACA     PTSUNNY   79  54  41 CALM      30.13R
MEXICO CITY    TSTM      57  52  82 E15G35      N/A
MORELIA        PTSUNNY   79  54  41 N2        30.20R
POZA RICA      PTSUNNY   88  72  58 CALM      29.96F HX  94
PUEBLA         DRIZZLE   55  54  94 S10       30.36R
QUERETARO      PTSUNNY   75  55  50 E12       30.26F
S. LUIS POTOSI PTSUNNY   70  59  68 E9        30.21F
TAMPICO        PTSUNNY   81  73  78 E12       29.96
TOLUCA         CLOUDY    61  50  67 SE6       30.39S

SOUTHERN MEXICO

CITY           SKY/WX    TMP DP  RH WIND       PRES   REMARKS
ACAPULCO       PTSUNNY   88  73  62 SW9       29.84S HX  96
B. DE HUATULCO PTSUNNY   77  68  73 CALM      29.90S
OAXACA         PTSUNNY   75  52  43 NW10      30.19S
P. ESCONDIDO   RAIN      88  75  66 W7        29.95S HX  97
VERACRUZ       CLOUDY    81  73  78 N5        29.96R
ZIHUATANEJO    PTSUNNY   90  75  62 SW6       29.86S HX 100

YUCATAN PENINSULA

CITY           SKY/WX    TMP DP  RH WIND       PRES   REMARKS
CAMPECHE       PTCLDY    86  75  70 N17G29    29.88F HX  95
CANCUN         PTCLDY    82  73  74 NE12      30.04R
CHETUMAL       PTCLDY    86  73  66 E12       29.96R HX  93
CD. DEL CARMEN CLOUDY    86  73  66 N15       29.89R HX  93
COZUMEL        PTCLDY    81  73  78 SE13      30.03R
MERIDA         MOCLDY    86  70  58 NE21      29.96R HX  90
MINATITLAN     MOCLDY    82  68  61 N12       29.88R
TAPACHULA      PTCLDY    88  77  70 W8        29.84R HX 100
TUX. GUTIERREZ MOCLDY    86  68  54 NW9       29.89R
VILLAHERMOSA   MOCLDY    88  75  66 N6        29.90F HX  97

CENTRAL AMERICA

CITY           SKY/WX    TMP DP  RH WIND       PRES   REMARKS
BELIZE CITY    PTCLDY    84  77  79 E9        29.98R HX  94
MANAGUA        PTCLDY    81  73  78 SE12      29.86S

CARIBBEAN

CITY           SKY/WX    TMP DP  RH WIND       PRES   REMARKS
ARUBA          PTCLDY    82  75  78 E22       29.92S
KINGSTON       MOCLDY    84  73  70 NW7       30.00S HX  91
NASSAU         PTCLDY    82  75  78 SE5       30.13R
SAN JUAN       PTCLDY    82  73  74 E8        30.11R
SANTO DOMINGO  MOCLDY    81  75  83 SE6       30.06R
ST. CROIX      PTCLDY    82  73  74 E13       30.10
ST. KITTS      PTCLDY    81  73  78 NE13      30.09S
ST. MAARTEN    PTCLDY    82  73  74 E12       30.12R
ST. THOMAS     MOCLDY    82  73  74 E9        30.10

$$



USA.gov is the U.S. government's official web portal to all federal, state and local government web resources and services.